When you browse on this site, cookies collect data to enhance your experience and personalize the content and advertising you see.
Visit our Privacy Policy to learn more. By continuing to use the site, you agree to this use of cookies and data.

Hourly Weather Newport

Today, 11 July, Saturday

Time Temperature Precipitation Wind Pressure Humidity
00:00 +9°C° 0 mm 2 mps 767 mmHg 88%
01:00 +9°C° 0 mm 2 mps 767 mmHg 89%
02:00 +9°C° 0 mm 2 mps 767 mmHg 89%
03:00 +9°C° 0 mm 2 mps 767 mmHg 90%
04:00 +9°C° 0 mm 2 mps 768 mmHg 89%
05:00 +10°C° 0 mm 2 mps 768 mmHg 89%
06:00 +12°C° 0 mm 2 mps 768 mmHg 89%
07:00 +14°C° 0 mm 2 mps 769 mmHg 83%
08:00 +15°C° 0 mm 2 mps 769 mmHg 76%
09:00 +16°C° 0 mm 2 mps 769 mmHg 70%
10:00 +17°C° 0 mm 2 mps 769 mmHg 68%
11:00 +18°C° 0 mm 2 mps 769 mmHg 67%
12:00 +18°C° 0 mm 2 mps 769 mmHg 64%
13:00 +18°C° 0 mm 3 mps 769 mmHg 65%
14:00 +18°C° 0 mm 3 mps 769 mmHg 66%
15:00 +18°C° 0 mm 4 mps 769 mmHg 67%
16:00 +18°C° 0 mm 4 mps 769 mmHg 69%
17:00 +17°C° 0 mm 4 mps 769 mmHg 71%
18:00 +17°C° 0 mm 4 mps 769 mmHg 73%
19:00 +14°C° 0 mm 3 mps 769 mmHg 76%
20:00 +12°C° 0 mm 3 mps 770 mmHg 79%
21:00 +10°C° 0 mm 2 mps 770 mmHg 82%
22:00 +10°C° 0 mm 2 mps 770 mmHg 80%
23:00 +9°C° 0 mm 2 mps 770 mmHg 78%

Tomorrow, 12 July, Sunday

Time Temperature Precipitation Wind Pressure Humidity
00:00 +9°C° 0 mm 2 mps 770 mmHg 76%
01:00 +9°C° 0 mm 2 mps 770 mmHg 77%
02:00 +9°C° 0 mm 1 mps 769 mmHg 77%
03:00 +9°C° 0 mm 1 mps 769 mmHg 78%
04:00 +10°C° 0 mm 1 mps 769 mmHg 78%
05:00 +11°C° 0 mm 1 mps 769 mmHg 79%
06:00 +12°C° 0 mm 1 mps 769 mmHg 79%
07:00 +14°C° 0 mm 1 mps 770 mmHg 75%
08:00 +15°C° 0 mm 1 mps 770 mmHg 70%
09:00 +16°C° 0 mm 2 mps 770 mmHg 66%
10:00 +17°C° 0 mm 2 mps 770 mmHg 65%
11:00 +18°C° 0 mm 2 mps 770 mmHg 63%
12:00 +19°C° 0 mm 2 mps 770 mmHg 62%
13:00 +19°C° 0 mm 2 mps 770 mmHg 63%
14:00 +19°C° 0 mm 2 mps 769 mmHg 64%
15:00 +19°C° 0 mm 3 mps 769 mmHg 64%
16:00 +19°C° 0 mm 2 mps 769 mmHg 67%
17:00 +18°C° 0 mm 2 mps 769 mmHg 70%
18:00 +18°C° 0 mm 2 mps 769 mmHg 74%
19:00 +16°C° 0 mm 2 mps 769 mmHg 78%
20:00 +14°C° 0 mm 2 mps 769 mmHg 83%
21:00 +12°C° 0 mm 1 mps 769 mmHg 87%
22:00 +12°C° 0 mm 2 mps 769 mmHg 88%
23:00 +12°C° 0 mm 2 mps 769 mmHg 88%

Day after tomorrow, 13 July, Monday

Time Temperature Precipitation Wind Pressure Humidity
00:00 +12°C° 0 mm 2 mps 769 mmHg 89%
01:00 +12°C° 0 mm 2 mps 768 mmHg 91%
02:00 +12°C° 0 mm 2 mps 768 mmHg 92%
03:00 +11°C° 0 mm 3 mps 768 mmHg 94%
04:00 +12°C° 0 mm 3 mps 767 mmHg 93%
05:00 +13°C° 0 mm 3 mps 767 mmHg 92%
06:00 +13°C° 0 mm 3 mps 767 mmHg 91%
07:00 +14°C° 0 mm 4 mps 767 mmHg 87%
08:00 +15°C° 0 mm 5 mps 767 mmHg 84%
09:00 +16°C° 0 mm 5 mps 767 mmHg 80%
10:00 +16°C° 0 mm 5 mps 766 mmHg 82%
11:00 +15°C° 0 mm 5 mps 766 mmHg 84%
12:00 +15°C° 0 mm 5 mps 766 mmHg 86%
13:00 +15°C° 0 mm 5 mps 765 mmHg 87%
14:00 +15°C° 0 mm 6 mps 765 mmHg 88%
15:00 +15°C° 0 mm 6 mps 765 mmHg 89%
16:00 +15°C° 0.3 mm 6 mps 764 mmHg 91%
17:00 +15°C° 0.3 mm 6 mps 764 mmHg 94%
18:00 +15°C° 0.3 mm 6 mps 763 mmHg 97%
19:00 +15°C° 1 mm 6 mps 763 mmHg 97%
20:00 +15°C° 1 mm 5 mps 763 mmHg 98%
21:00 +15°C° 1 mm 5 mps 763 mmHg 99%
22:00 +15°C° 0.2 mm 4 mps 762 mmHg 99%
23:00 +15°C° 0.2 mm 4 mps 762 mmHg 99%

14 July, Tuesday

Time Temperature Precipitation Wind Pressure Humidity
00:00 +15°C° 0.2 mm 4 mps 762 mmHg 99%
01:00 +15°C° 0.5 mm 4 mps 761 mmHg 98%
02:00 +15°C° 0.5 mm 4 mps 761 mmHg 98%
03:00 +15°C° 0.5 mm 4 mps 761 mmHg 98%
04:00 +15°C° 0 mm 4 mps 761 mmHg 97%
05:00 +14°C° 0 mm 5 mps 761 mmHg 96%
06:00 +14°C° 0 mm 5 mps 761 mmHg 95%
07:00 +15°C° 0 mm 5 mps 761 mmHg 92%
08:00 +15°C° 0 mm 5 mps 761 mmHg 89%
09:00 +15°C° 0 mm 6 mps 762 mmHg 85%
10:00 +16°C° 0 mm 6 mps 762 mmHg 81%
11:00 +16°C° 0 mm 6 mps 762 mmHg 77%
12:00 +16°C° 0 mm 6 mps 762 mmHg 73%
13:00 +16°C° 0 mm 6 mps 762 mmHg 74%
14:00 +16°C° 0 mm 6 mps 762 mmHg 74%
15:00 +15°C° 0 mm 6 mps 761 mmHg 74%
16:00 +15°C° 0 mm 6 mps 761 mmHg 77%
17:00 +14°C° 0 mm 6 mps 761 mmHg 80%
18:00 +13°C° 0 mm 5 mps 761 mmHg 83%
19:00 +13°C° 0 mm 5 mps 761 mmHg 86%
20:00 +13°C° 0 mm 4 mps 761 mmHg 89%
21:00 +12°C° 0 mm 4 mps 761 mmHg 91%
22:00 +13°C° 0.1 mm 4 mps 761 mmHg 92%
23:00 +13°C° 0.1 mm 4 mps 761 mmHg 94%

15 July, Wednesday

Time Temperature Precipitation Wind Pressure Humidity
00:00 +13°C° 0.1 mm 4 mps 761 mmHg 95%
01:00 +13°C° 0 mm 5 mps 760 mmHg 95%
02:00 +14°C° 0 mm 5 mps 760 mmHg 95%
03:00 +14°C° 0 mm 5 mps 760 mmHg 96%
04:00 +14°C° 0.1 mm 5 mps 760 mmHg 96%
05:00 +14°C° 0.1 mm 5 mps 760 mmHg 96%
06:00 +14°C° 0.1 mm 5 mps 760 mmHg 96%
07:00 +14°C° 0 mm 5 mps 760 mmHg 95%
08:00 +15°C° 0 mm 5 mps 760 mmHg 94%
09:00 +15°C° 0 mm 4 mps 761 mmHg 94%
10:00 +15°C° 0 mm 4 mps 761 mmHg 92%
11:00 +17°C° 0 mm 4 mps 761 mmHg 90%
12:00 +17°C° 0 mm 4 mps 761 mmHg 89%
13:00 +18°C° 0 mm 4 mps 761 mmHg 88%
14:00 +18°C° 0 mm 4 mps 762 mmHg 86%
15:00 +18°C° 0 mm 4 mps 762 mmHg 85%
16:00 +18°C° 0 mm 4 mps 762 mmHg 86%
17:00 +18°C° 0 mm 4 mps 762 mmHg 86%
18:00 +18°C° 0 mm 4 mps 762 mmHg 87%
19:00 +17°C° 0 mm 4 mps 763 mmHg 89%
20:00 +16°C° 0 mm 3 mps 763 mmHg 92%
21:00 +15°C° 0 mm 2 mps 763 mmHg 95%
22:00 +15°C° 0 mm 2 mps 763 mmHg 95%
23:00 +14°C° 0 mm 2 mps 764 mmHg 96%

16 July, Thursday

Time Temperature Precipitation Wind Pressure Humidity
00:00 +14°C° 0 mm 1 mps 764 mmHg 96%
01:00 +14°C° 0 mm 2 mps 764 mmHg 96%
02:00 +14°C° 0 mm 2 mps 764 mmHg 96%
03:00 +14°C° 0 mm 2 mps 764 mmHg 96%
04:00 +15°C° 0 mm 2 mps 764 mmHg 96%
05:00 +15°C° 0 mm 2 mps 764 mmHg 95%
06:00 +16°C° 0 mm 2 mps 764 mmHg 95%
07:00 +17°C° 0 mm 3 mps 765 mmHg 91%
08:00 +17°C° 0 mm 3 mps 765 mmHg 88%
09:00 +18°C° 0 mm 3 mps 765 mmHg 84%
10:00 +18°C° 0 mm 3 mps 765 mmHg 83%
11:00 +19°C° 0 mm 4 mps 765 mmHg 82%
12:00 +19°C° 0 mm 4 mps 765 mmHg 81%
13:00 +19°C° 0 mm 4 mps 765 mmHg 81%
14:00 +19°C° 0 mm 4 mps 765 mmHg 81%
15:00 +19°C° 0 mm 5 mps 765 mmHg 82%
16:00 +19°C° 0 mm 5 mps 765 mmHg 82%
17:00 +19°C° 0 mm 5 mps 765 mmHg 83%
18:00 +19°C° 0 mm 4 mps 765 mmHg 84%
19:00 +17°C° 0 mm 4 mps 765 mmHg 88%
20:00 +16°C° 0 mm 3 mps 765 mmHg 91%
21:00 +15°C° 0 mm 2 mps 766 mmHg 95%
22:00 +15°C° 0 mm 2 mps 766 mmHg 95%
23:00 +14°C° 0 mm 2 mps 766 mmHg 96%
Show more